User: anonymous
Location: NJAA Observatory
(40.6819°N, 74.8979°W)
Time: 03:04:28
(UTC-04:00)
Language:

Cosmos 2237 Rocket - Orbit

View from above orbital plane
View from above orbital plane
View from above satellite
View from above satellite

Ground track
Ground track

The orbit data is extracted from the following two-line orbital elements,

1 22566U 93016B   14292.55251657 -.00000232  00000-0 -95569-4 0  1858
2 22566 071.0075 306.3159 0009865 186.3283 173.7716 14.14861732113834
Epoch (UTC): 19 October 2014 13:15:37
Eccentricity: 0.0009865
inclination: 71.0075°
perigee height: 835 km
apogee height: 850 km
right ascension of ascending node: 306.3159°
argument of perigee: 186.3283°
revolutions per day: 14.14861732
mean anomaly at epoch: 173.7716°
orbit number at epoch: 11383

The dashed part of the orbit path shows where the satellite is in the earth's shadow,  

DLR